Jennings, LA

2:53 AM CDT on May 25, 2017 (GMT -0500)
Jennings

Weather History for K3R7 - February, 2013

Change the Weather History Date:

Tuesday, February 19, 2013

  Actual Average (KCWF) Record (KCWF)
Temperature  
Mean Temperature 55 °F -  
Max Temperature 62 °F 65 °F 78 °F (2017)
Min Temperature 48 °F 50 °F 32 °F (2006)
Degree Days  
Heating Degree Days 10    
Growing Degree Days 5 (Base 50)    
Moisture  
Dew Point 41 °F    
Average Humidity 61    
Maximum Humidity 97    
Minimum Humidity 29    
Precipitation  
Precipitation 0.18 in - - ()
Sea Level Pressure  
Sea Level Pressure 30.18 in    
Wind  
Wind Speed 10 mph (NNE)    
Max Wind Speed 18 mph    
Max Gust Speed 23 mph    
Visibility 10 miles    
Events Rain    
Averages and records for this station are not official NWS values.
T = Trace of Precipitation, MM = Missing Value Source: NWS Daily Summary

Daily Weather History Graph

Daily Weather History Graph

Search for Another Location

Airport or City:

Trip Planner

Search our weather history database for the weather conditions in past years. The results will help you decide how hot, cold, wet, or windy it might be!

Date:

Astronomy

Feb. 19, 2013 Rise Set
Actual Time 6:46 AM CST 6:02 PM CST
Civil Twilight 6:22 AM CST 6:26 PM CST
Nautical Twilight 5:54 AM CST 6:54 PM CST
Astronomical Twilight 5:26 AM CST 7:22 PM CST
Moon 12:47 PM CST (2/19) 2:06 AM CST (2/19)
Length of Visible Light 12h 04m
Length of Day
11h 15m
Waxing Gibbous, 67% of the Moon is Illuminated
Feb 19
Waxing Gibbous
Feb 25
Full
Mar 4
Last Quarter
Mar 11
New
Mar 19
First Quarter

Hourly Weather History & Observations

Time (CST) Temp. Dew Point Humidity Pressure Visibility Wind Dir Wind Speed Gust Speed Precip Events Conditions
12:35 AM 59.5 °F 58.8 °F 97% 30.01 in 10.0 mi West 8.1 mph - 0.18 in Rain Light Rain
12:55 AM 59.9 °F 58.1 °F 94% 30.02 in 10.0 mi West 9.2 mph - 0.18 in Rain Light Rain
1:15 AM 59.2 °F 56.3 °F 90% 30.03 in 10.0 mi West 9.2 mph - N/A   Light Drizzle
1:35 AM 58.6 °F 56.3 °F 92% 30.03 in 10.0 mi NW 8.1 mph - N/A   Overcast
1:55 AM 58.8 °F 55.6 °F 89% 30.05 in 10.0 mi NW 9.2 mph - N/A   Mostly Cloudy
2:15 AM 58.6 °F 53.6 °F 83% 30.05 in 10.0 mi NNW 13.8 mph 20.7 mph N/A   Overcast
2:35 AM 57.6 °F 49.5 °F 74% 30.05 in 10.0 mi NNW 16.1 mph 20.7 mph N/A   Overcast
2:55 AM 56.8 °F 49.1 °F 75% 30.07 in 10.0 mi NNW 11.5 mph 18.4 mph N/A   Overcast
3:15 AM 56.1 °F 46.8 °F 71% 30.07 in 10.0 mi North 10.4 mph 20.7 mph N/A   Overcast
3:35 AM 55.0 °F 46.2 °F 72% 30.08 in 10.0 mi North 10.4 mph - N/A   Mostly Cloudy
3:55 AM 54.0 °F 45.3 °F 73% 30.09 in 10.0 mi North 11.5 mph 17.3 mph N/A   Mostly Cloudy
4:15 AM 53.1 °F 44.8 °F 73% 30.09 in 10.0 mi North 12.7 mph - N/A   Mostly Cloudy
4:35 AM 52.3 °F 44.8 °F 75% 30.10 in 10.0 mi North 10.4 mph - N/A   Mostly Cloudy
4:55 AM 51.6 °F 44.6 °F 77% 30.10 in 10.0 mi North 12.7 mph 18.4 mph N/A   Clear
5:15 AM 50.9 °F 44.8 °F 80% 30.12 in 10.0 mi North 9.2 mph - N/A   Clear
6:15 AM 49.3 °F 43.7 °F 81% 30.16 in 10.0 mi North 8.1 mph - N/A   Clear
6:35 AM 49.1 °F 43.7 °F 82% 30.16 in 10.0 mi North 9.2 mph - N/A   Clear
6:55 AM 48.7 °F 43.3 °F 82% 30.17 in 10.0 mi North 8.1 mph - N/A   Clear
7:15 AM 48.9 °F 43.0 °F 80% 30.18 in 10.0 mi NNE 5.8 mph - N/A   Clear
7:35 AM 49.8 °F 42.6 °F 76% 30.19 in 10.0 mi North 9.2 mph - N/A   Clear
7:55 AM 50.5 °F 41.9 °F 72% 30.20 in 10.0 mi NNE 8.1 mph - N/A   Clear
8:15 AM 51.3 °F 41.4 °F 69% 30.21 in 10.0 mi NNE 10.4 mph - N/A   Clear
8:35 AM 51.8 °F 41.4 °F 68% 30.22 in 10.0 mi NNE 8.1 mph - N/A   Clear
8:55 AM 52.0 °F 40.1 °F 64% 30.23 in 10.0 mi NNE 16.1 mph 20.7 mph N/A   Clear
9:15 AM 52.7 °F 39.7 °F 61% 30.23 in 10.0 mi NNE 18.4 mph 23.0 mph N/A   Clear
9:35 AM 53.4 °F 39.6 °F 59% 30.24 in 10.0 mi NE 16.1 mph 21.9 mph N/A   Clear
9:55 AM 54.1 °F 39.0 °F 57% 30.25 in 10.0 mi NNE 12.7 mph 21.9 mph N/A   Clear
10:15 AM 54.3 °F 38.8 °F 56% 30.25 in 10.0 mi NNE 16.1 mph 21.9 mph N/A   Clear
10:35 AM 55.0 °F 39.0 °F 55% 30.25 in 10.0 mi NNE 15.0 mph - N/A   Clear
10:55 AM 55.6 °F 39.9 °F 56% 30.25 in 10.0 mi NNE 13.8 mph 19.6 mph N/A   Clear
11:15 AM 56.5 °F 41.4 °F 57% 30.25 in 10.0 mi NNE 13.8 mph 21.9 mph N/A   Clear
11:35 AM 56.8 °F 40.3 °F 54% 30.25 in 10.0 mi NNE 12.7 mph - N/A   Clear
11:55 AM 58.1 °F 41.2 °F 53% 30.23 in 10.0 mi NNE 12.7 mph - N/A   Clear
12:15 PM 59.2 °F 38.8 °F 47% 30.22 in 10.0 mi NNE 13.8 mph 19.6 mph N/A   Clear
12:35 PM 60.4 °F 41.5 °F 50% 30.23 in 10.0 mi North 11.5 mph - N/A   Clear
12:55 PM 61.5 °F 38.3 °F 42% 30.23 in 10.0 mi NNE 16.1 mph - N/A   Clear
1:15 PM 61.9 °F 39.2 °F 43% 30.21 in 10.0 mi NNE 11.5 mph 17.3 mph N/A   Clear
1:35 PM 61.9 °F 39.7 °F 44% 30.21 in 10.0 mi NNE 11.5 mph 18.4 mph N/A   Clear
1:55 PM 61.5 °F 38.8 °F 43% 30.21 in 10.0 mi NNE 12.7 mph 17.3 mph N/A   Clear
2:15 PM 61.7 °F 38.5 °F 42% 30.21 in 10.0 mi NNE 12.7 mph 18.4 mph N/A   Clear
2:35 PM 61.9 °F 36.7 °F 39% 30.20 in 10.0 mi NNE 13.8 mph - N/A   Clear
2:55 PM 61.9 °F 35.4 °F 37% 30.19 in 10.0 mi ENE 15.0 mph 20.7 mph N/A   Clear
3:15 PM 62.6 °F 32.7 °F 33% 30.20 in 10.0 mi NE 12.7 mph - N/A   Clear
3:35 PM 62.6 °F 33.4 °F 34% 30.19 in 10.0 mi NE 12.7 mph - N/A   Clear
3:55 PM 62.2 °F 29.7 °F 29% 30.19 in 10.0 mi NE 13.8 mph - N/A   Clear
4:15 PM 61.7 °F 30.0 °F 30% 30.19 in 10.0 mi NE 11.5 mph 20.7 mph N/A   Clear
4:35 PM 61.2 °F 32.5 °F 34% 30.19 in 10.0 mi NE 12.7 mph 16.1 mph N/A   Clear
4:55 PM 60.8 °F 34.3 °F 37% 30.20 in 10.0 mi NNE 10.4 mph - N/A   Clear
5:15 PM 59.5 °F 32.0 °F 35% 30.18 in 10.0 mi NE 12.7 mph - N/A   Clear
6:35 PM 54.5 °F 36.1 °F 50% 30.20 in 10.0 mi NNE 3.5 mph - N/A   Clear
6:55 PM 53.6 °F 37.0 °F 53% 30.20 in 10.0 mi NNE 4.6 mph - N/A   Clear
7:15 PM 52.7 °F 37.8 °F 57% 30.22 in 10.0 mi Calm Calm - N/A   Clear
7:35 PM 52.0 °F 38.8 °F 61% 30.22 in 10.0 mi NNE 3.5 mph - N/A   Clear
7:55 PM 51.1 °F 38.8 °F 63% 30.22 in 10.0 mi NE 5.8 mph - N/A   Clear
8:15 PM 50.7 °F 38.5 °F 63% 30.22 in 10.0 mi NE 4.6 mph - N/A   Clear
8:35 PM 50.5 °F 38.5 °F 63% 30.21 in 10.0 mi NE 8.1 mph - N/A   Clear
8:55 PM 50.2 °F 38.3 °F 64% 30.22 in 10.0 mi NNE 6.9 mph - N/A   Clear
9:15 PM 50.2 °F 37.6 °F 62% 30.22 in 10.0 mi NE 6.9 mph - N/A   Clear
9:35 PM 50.4 °F 36.7 °F 59% 30.23 in 10.0 mi NNE 9.2 mph - N/A   Clear
9:55 PM 50.4 °F 36.5 °F 59% 30.21 in 10.0 mi NE 11.5 mph - N/A   Clear
10:15 PM 50.0 °F 36.5 °F 60% 30.21 in 10.0 mi NE 10.4 mph - N/A   Clear
10:35 PM 49.5 °F 36.5 °F 61% 30.21 in 10.0 mi NE 10.4 mph - N/A   Clear
10:55 PM 49.1 °F 36.9 °F 63% 30.21 in 10.0 mi NE 9.2 mph - N/A   Clear
11:15 PM 48.6 °F 37.4 °F 65% 30.20 in 10.0 mi NE 8.1 mph - N/A   Clear
11:35 PM 48.2 °F 36.9 °F 65% 30.19 in 10.0 mi ENE 8.1 mph - N/A   Clear
11:55 PM 48.7 °F 35.8 °F 61% 30.20 in 10.0 mi NE 8.1 mph - N/A   Clear